Weather in Chernatske

Ukraine / Sumi District     52°10′47″N   33°55′21″E
temp.,
°C
wind,
m/s
gust,
m/s
humid.,
%
clouds,
%
prec.,
mm/h
press.,
hPa
HPBL,
m
23 october, sat
sat2300:00+6sw410677 0.0 1010208
03:00+6sw614615 0.0 1010367
06:00+5sw5136743 0.0 1010344
09:00+6sw5127271 0.0 1010536
12:00+9wsw7125253 0.0 10111621
15:00+9w7115775 0.3 10121646
18:00+6w5117046 0.3 1014438
21:00+4w51175100 0.3 1016472
24 october, sun
sun2400:00+6wsw5106998 0.0 1017557
03:00+6wsw51064100 0.0 1017459
06:00+5w51177100 0.0 1018678
09:00+6w597889 0.1 1019903
12:00+5wnw6868100 0.1 10211197
15:00+6nw696898 0.3 10221180
18:00+4nw6107383 0.1 10241016
21:00+2nnw49797 0.1 1026377
25 october, mon
mon2500:000nw39895 0.0 1028281
03:00−1nw36945 0.0 1030144
06:00−2nnw239413 0.0 103169
09:000nnw23825 0.0 1033179
12:00+4wnw22595 0.0 1033678
15:00+5w23515 0.0 1032801
18:00+2sw22635 0.0 103214
21:00+1sw34675 0.0 103251
26 october, tue
tue2600:000sw36733 0.0 103290
03:00−1sw37739 0.0 1032122
06:00−1sw387349 0.0 1031144
09:00+1ssw4106519 0.0 1031256
12:00+7sw68486 0.0 1030555
15:00+8sw59495 0.0 1028689
18:00+3ssw4116616 0.0 1027215
21:00+3ssw513665 0.0 1027263
27 october, wed
wed2700:00+2ssw513665 0.0 1026262
03:00+2ssw5136525 0.0 1025262
06:00+2ssw51363100 0.0 1024268
09:00+3ssw61461100 0.0 1023376
12:00+6sw71261100 0.0 1022537
15:00+8sw61066100 0.0 1020796
18:00+6wsw4985100 0.9 1021445
21:00+5w4985100 0.9 1022335